| time (UTC) | temp F | wind direction | speed knots | gust knots | rain 1hr in | rain 24hr in | rain mn in | humidity % | barometer mb |
| 20260902231527 | 59 | 231 | 23.5 | 30.4 | 0.04 | 0.04 | 0.04 | 72 | 1003.4 |
| 20260902230024 | 59 | 235 | 30.4 | 48.7 | 0.03 | 0.03 | 0.03 | 69 | 1002.9 |
| 20260902224509 | 76 | 204 | 13.9 | 26.1 | 0.01 | 0.01 | 0.01 | 40 | 1000.6 |
| 20260902223009 | 82 | 176 | 10.4 | 15.6 | 0.00 | 0.00 | 0.00 | 27 | 999.4 |
| 20260902221507 | 83 | 155 | 9.6 | 13.9 | 0.00 | 0.00 | 0.00 | 26 | 999.1 |
| 20260902220008 | 83 | 165 | 8.7 | 12.2 | 0.00 | 0.00 | 0.00 | 26 | 999.2 |
| 20260902214506 | 84 | 215 | 13.0 | 16.5 | 0.00 | 0.00 | 0.00 | 25 | 999.3 |
| 20260902213014 | 86 | 150 | 12.2 | 22.6 | 0.00 | 0.00 | 0.00 | 24 | 999.1 |
| 20260902211505 | 86 | 167 | 8.7 | 18.2 | 0.00 | 0.00 | 0.00 | 24 | 999.4 |
| 20260902210100 | 85 | 157 | 13.0 | 20.0 | 0.00 | 0.00 | 0.00 | 26 | 999.6 |
| 20260902204542 | 83 | 124 | 4.3 | 13.0 | 0.00 | 0.00 | 0.00 | 28 | 1000.0 |
| 20260902203046 | 84 | 95 | 12.2 | 18.2 | 0.00 | 0.00 | 0.00 | 27 | 1000.4 |
| 20260902201518 | 84 | 124 | 9.6 | 13.9 | 0.00 | 0.00 | 0.00 | 29 | 1000.5 |
| 20260902200015 | 81 | 169 | 8.7 | 14.8 | 0.00 | 0.00 | 0.00 | 30 | 1000.7 |
| 20260902194552 | 81 | 163 | 9.6 | 13.9 | 0.00 | 0.00 | 0.00 | 30 | 1000.8 |
| 20260902193054 | 80 | 196 | 7.8 | 15.6 | 0.00 | 0.00 | 0.00 | 31 | 1001.0 |
| 20260902191544 | 80 | 142 | 11.3 | 14.8 | 0.00 | 0.00 | 0.00 | 32 | 1001.1 |
| 20260902190029 | 80 | 176 | 6.1 | 15.6 | 0.00 | 0.00 | 0.00 | 33 | 1001.2 |
| 20260902184516 | 79 | 213 | 7.8 | 13.9 | 0.00 | 0.00 | 0.00 | 34 | 1001.4 |
| 20260902183009 | 79 | 189 | 11.3 | 13.9 | 0.00 | 0.00 | 0.00 | 34 | 1001.5 |
| 20260902181550 | 79 | 196 | 13.9 | 17.4 | 0.00 | 0.00 | 0.00 | 33 | 1001.5 |
| 20260902180048 | 79 | 178 | 9.6 | 18.2 | 0.00 | 0.00 | 0.00 | 35 | 1001.8 |
| 20260902174527 | 78 | 195 | 13.0 | 18.2 | 0.00 | 0.00 | 0.00 | 35 | 1002.0 |
| 20260902173024 | 78 | 201 | 11.3 | 20.0 | 0.00 | 0.00 | 0.00 | 37 | 1002.0 |
| 20260902171503 | 76 | 198 | 13.0 | 17.4 | 0.00 | 0.00 | 0.00 | 39 | 1002.3 |
| 20260902170001 | 76 | 218 | 12.2 | 17.4 | 0.00 | 0.00 | 0.00 | 40 | 1002.3 |
| 20260902164542 | 74 | 196 | 7.0 | 11.3 | 0.00 | 0.00 | 0.00 | 42 | 1002.4 |
| 20260902163048 | 72 | 180 | 6.1 | 9.6 | 0.00 | 0.00 | 0.00 | 44 | 1002.4 |
| 20260902161518 | 71 | 182 | 4.3 | 6.1 | 0.00 | 0.00 | 0.00 | 46 | 1002.4 |
| 20260902160017 | 70 | 205 | 5.2 | 7.8 | 0.00 | 0.00 | 0.00 | 47 | 1002.5 |
| 20260902154558 | 69 | 216 | 6.1 | 7.8 | 0.00 | 0.00 | 0.00 | 48 | 1002.8 |
| 20260902153109 | 68 | 211 | 5.2 | 7.8 | 0.00 | 0.00 | 0.00 | 50 | 1002.9 |
| 20260902151543 | 67 | 202 | 5.2 | 7.8 | 0.00 | 0.00 | 0.00 | 51 | 1003.0 |
| 20260902150037 | 66 | 238 | 5.2 | 7.8 | 0.00 | 0.00 | 0.00 | 52 | 1003.1 |
| 20260902144521 | 64 | 185 | 6.1 | 7.8 | 0.00 | 0.00 | 0.00 | 55 | 1003.4 |
| 20260902143018 | 64 | 193 | 4.3 | 7.0 | 0.00 | 0.00 | 0.00 | 55 | 1003.6 |
| 20260902141502 | 63 | 205 | 4.3 | 5.2 | 0.00 | 0.00 | 0.00 | 57 | 1003.6 |
| 20260902140100 | 61 | 210 | 2.6 | 3.5 | 0.00 | 0.00 | 0.00 | 59 | 1003.7 |
| 20260902134601 | 59 | 210 | 1.7 | 3.5 | 0.00 | 0.00 | 0.00 | 60 | 1003.7 |
| 20260902133042 | 57 | 168 | 2.6 | 4.3 | 0.00 | 0.00 | 0.00 | 64 | 1003.7 |
| 20260902131541 | 55 | 168 | 1.7 | 4.3 | 0.00 | 0.00 | 0.00 | 66 | 1003.8 |
| 20260902130023 | 54 | 184 | 4.3 | 7.0 | 0.00 | 0.00 | 0.00 | 66 | 1004.0 |
| 20260902124521 | 56 | 185 | 7.0 | 11.3 | 0.00 | 0.00 | 0.00 | 63 | 1003.9 |
| 20260902123002 | 57 | 207 | 3.5 | 6.1 | 0.00 | 0.00 | 0.00 | 63 | 1003.4 |
| 20260902121502 | 57 | 306 | 2.6 | 6.1 | 0.00 | 0.00 | 0.00 | 63 | 1003.3 |
| 20260902120056 | 57 | 288 | 5.2 | 7.8 | 0.00 | 0.00 | 0.00 | 62 | 1003.4 |
| 20260902114542 | 58 | 290 | 6.1 | 8.7 | 0.00 | 0.00 | 0.00 | 60 | 1003.4 |
| 20260902113024 | 57 | 269 | 7.0 | 8.7 | 0.00 | 0.00 | 0.00 | 62 | 1003.7 |
| 20260902111533 | 55 | 247 | 6.1 | 7.8 | 0.00 | 0.00 | 0.00 | 63 | 1003.8 |
| 20260902110000 | 57 | 226 | 8.7 | 12.2 | 0.00 | 0.00 | 0.00 | 61 | 1004.0 |
| 20260902104600 | 57 | 207 | 8.7 | 11.3 | 0.00 | 0.00 | 0.00 | 61 | 1004.0 |
| 20260902103044 | 57 | 201 | 10.4 | 12.2 | 0.00 | 0.00 | 0.00 | 60 | 1003.9 |
| 20260902101538 | 58 | 202 | 7.8 | 12.2 | 0.00 | 0.00 | 0.00 | 59 | 1003.9 |
| 20260902100020 | 58 | 189 | 10.4 | 12.2 | 0.00 | 0.00 | 0.00 | 58 | 1004.0 |
| 20260902094517 | 58 | 185 | 8.7 | 10.4 | 0.00 | 0.00 | 0.00 | 57 | 1004.0 |
| 20260902093058 | 59 | 171 | 8.7 | 11.3 | 0.00 | 0.00 | 0.00 | 55 | 1004.3 |
| 20260902091556 | 60 | 166 | 7.0 | 8.7 | 0.00 | 0.00 | 0.00 | 55 | 1004.1 |
| 20260902090044 | 60 | 166 | 7.0 | 9.6 | 0.00 | 0.00 | 0.00 | 53 | 1004.2 |
| 20260902084543 | 62 | 175 | 8.7 | 10.4 | 0.00 | 0.00 | 0.00 | 51 | 1004.4 |
| 20260902083044 | 61 | 172 | 7.8 | 11.3 | 0.00 | 0.00 | 0.00 | 52 | 1004.5 |
| 20260902081542 | 60 | 190 | 7.0 | 9.6 | 0.00 | 0.00 | 0.00 | 54 | 1004.7 |
| 20260902080040 | 60 | 196 | 5.2 | 8.7 | 0.00 | 0.00 | 0.00 | 51 | 1004.7 |
| 20260902074541 | 61 | 145 | 7.0 | 9.6 | 0.00 | 0.00 | 0.00 | 51 | 1004.5 |
| 20260902073036 | 62 | 123 | 8.7 | 10.4 | 0.00 | 0.00 | 0.00 | 50 | 1004.3 |
| 20260902071534 | 62 | 128 | 9.6 | 11.3 | 0.00 | 0.00 | 0.00 | 49 | 1004.3 |
| 20260902070013 | 63 | 134 | 7.8 | 9.6 | 0.00 | 0.00 | 0.00 | 48 | 1004.4 |
| 20260902064510 | 64 | 144 | 7.8 | 8.7 | 0.00 | 0.00 | 0.00 | 47 | 1004.5 |
| 20260902063058 | 65 | 141 | 7.0 | 8.7 | 0.00 | 0.00 | 0.00 | 46 | 1004.7 |
| 20260902061551 | 65 | 150 | 6.1 | 7.8 | 0.00 | 0.00 | 0.00 | 46 | 1004.8 |
| 20260902060032 | 65 | 141 | 6.1 | 8.7 | 0.00 | 0.00 | 0.00 | 46 | 1004.8 |
| 20260902054538 | 65 | 142 | 7.8 | 10.4 | 0.00 | 0.00 | 0.00 | 46 | 1004.9 |
| 20260902053014 | 64 | 146 | 7.8 | 10.4 | 0.00 | 0.00 | 0.00 | 46 | 1004.9 |
| 20260902051512 | 65 | 134 | 7.8 | 10.4 | 0.00 | 0.00 | 0.00 | 45 | 1005.0 |
| 20260902044554 | 65 | 127 | 7.8 | 9.6 | 0.00 | 0.00 | 0.00 | 45 | 1005.0 |
| 20260902043043 | 65 | 121 | 7.8 | 10.4 | 0.00 | 0.00 | 0.00 | 44 | 1005.1 |
| 20260902041532 | 66 | 105 | 6.1 | 9.6 | 0.00 | 0.00 | 0.00 | 44 | 1005.1 |
| 20260902040013 | 66 | 126 | 7.8 | 9.6 | 0.00 | 0.00 | 0.00 | 43 | 1005.2 |
| 20260902034511 | 67 | 146 | 7.8 | 9.6 | 0.00 | 0.00 | 0.00 | 43 | 1005.4 |
| 20260902033051 | 68 | 138 | 7.0 | 8.7 | 0.00 | 0.00 | 0.00 | 40 | 1005.3 |
| 20260902031550 | 70 | 137 | 6.1 | 7.8 | 0.00 | 0.00 | 0.00 | 38 | 1005.4 |
| 20260902030030 | 70 | 132 | 6.1 | 7.8 | 0.00 | 0.00 | 0.00 | 38 | 1005.4 |
| 20260902024529 | 70 | 134 | 7.0 | 7.8 | 0.00 | 0.00 | 0.00 | 37 | 1005.3 |
| 20260902023012 | 70 | 129 | 6.1 | 7.0 | 0.00 | 0.00 | 0.00 | 36 | 1005.2 |
| 20260902021512 | 72 | 134 | 5.2 | 7.8 | 0.00 | 0.00 | 0.00 | 35 | 1005.2 |
| 20260902020108 | 74 | 140 | 5.2 | 7.0 | 0.00 | 0.00 | 0.00 | 32 | 1005.2 |
| 20260902014554 | 76 | 127 | 7.8 | 10.4 | 0.00 | 0.00 | 0.00 | 30 | 1005.1 |
| 20260902013040 | 78 | 115 | 7.0 | 8.7 | 0.00 | 0.00 | 0.00 | 28 | 1005.1 |
| 20260902011539 | 80 | 121 | 5.2 | 9.6 | 0.00 | 0.00 | 0.00 | 26 | 1005.1 |
| 20260902010017 | 82 | 140 | 7.8 | 11.3 | 0.00 | 0.00 | 0.00 | 24 | 1005.1 |
| 20260902004518 | 83 | 139 | 7.8 | 13.0 | 0.00 | 0.00 | 0.00 | 23 | 1005.2 |
| 20260902003059 | 83 | 111 | 7.8 | 13.9 | 0.00 | 0.00 | 0.00 | 23 | 1005.2 |
| 20260902001558 | 84 | 132 | 7.8 | 11.3 | 0.00 | 0.00 | 0.00 | 22 | 1005.1 |
| 20260902000040 | 84 | 162 | 7.8 | 12.2 | 0.00 | 0.00 | 0.00 | 21 | 1005.2 |
| 20260901234538 | 84 | 158 | 8.7 | 13.9 | 0.00 | 0.00 | 0.00 | 21 | 1005.4 |
| 20260901233020 | 84 | 162 | 9.6 | 13.9 | 0.00 | 0.00 | 0.00 | 21 | 1005.4 |